Time,TemperatureF,DewpointF,PressureIn,WindDirection,WindDirectionDegrees,WindSpeedMPH,WindSpeedGustMPH,Humidity,HourlyPrecipIn,Conditions,Clouds,dailyrainin,SoftwareType,DateUTC
2013-05-26 00:02:00,55.8,50.4,30.16,SSE,152,5.0,11.0,82,0.00,,OVC025,0.00,VWS V14.00,2013-05-26 05:02:00,
2013-05-26 00:07:00,55.7,50.3,30.17,SSE,149,0.0,12.0,82,0.00,,OVC029,0.00,VWS V14.00,2013-05-26 05:07:00,
2013-05-26 00:12:00,55.6,50.2,30.17,SE,137,7.0,11.0,82,0.00,,OVC029,0.00,VWS V14.00,2013-05-26 05:12:00,
2013-05-26 00:17:00,55.5,50.1,30.16,SE,143,3.0,16.0,82,0.00,,OVC029,0.00,VWS V14.00,2013-05-26 05:17:00,
2013-05-26 00:22:00,55.5,50.4,30.16,SE,136,8.0,13.0,83,0.00,,OVC029,0.00,VWS V14.00,2013-05-26 05:22:00,
2013-05-26 00:27:00,55.4,50.0,30.16,ESE,115,0.0,14.0,82,0.00,,OVC029,0.00,VWS V14.00,2013-05-26 05:27:00,
2013-05-26 00:32:00,55.4,50.0,30.15,SE,141,0.0,18.0,82,0.00,,OVC029,0.00,VWS V14.00,2013-05-26 05:32:00,
2013-05-26 00:38:00,55.3,49.9,30.15,SE,135,11.0,18.0,82,0.00,,OVC029,0.00,VWS V14.00,2013-05-26 05:38:00,
2013-05-26 00:43:00,55.3,49.9,30.15,ESE,111,1.0,9.0,82,0.00,,OVC029,0.00,VWS V14.00,2013-05-26 05:43:00,
2013-05-26 00:48:00,55.2,49.8,30.15,ESE,117,2.0,9.0,82,0.00,,OVC029,0.00,VWS V14.00,2013-05-26 05:48:00,
2013-05-26 00:53:00,55.2,50.1,30.15,SSE,147,6.0,11.0,83,0.00,,OVC029,0.00,VWS V14.00,2013-05-26 05:53:00,
2013-05-26 00:58:00,55.1,50.0,30.15,SE,130,2.0,11.0,83,0.00,,OVC035,0.00,VWS V14.00,2013-05-26 05:58:00,
2013-05-26 01:03:00,55.2,50.1,30.15,SE,136,0.0,11.0,83,0.00,,OVC035,0.00,VWS V14.00,2013-05-26 06:03:00,
2013-05-26 01:08:00,55.2,50.1,30.15,SE,124,0.0,11.0,83,0.00,,OVC035,0.00,VWS V14.00,2013-05-26 06:08:00,
2013-05-26 01:13:00,55.3,49.9,30.15,SE,145,4.0,8.0,82,0.00,,OVC035,0.00,VWS V14.00,2013-05-26 06:13:00,
2013-05-26 01:18:00,55.3,49.9,30.15,ESE,118,5.0,10.0,82,0.00,,OVC035,0.00,VWS V14.00,2013-05-26 06:18:00,
2013-05-26 01:23:00,55.3,49.9,30.15,SE,130,0.0,8.0,82,0.00,,OVC035,0.00,VWS V14.00,2013-05-26 06:23:00,
2013-05-26 01:28:00,55.4,50.0,30.14,SE,127,0.0,8.0,82,0.00,,OVC035,0.00,VWS V14.00,2013-05-26 06:28:00,
2013-05-26 01:33:00,55.4,50.0,30.15,SSE,149,6.0,8.0,82,0.00,,OVC035,0.00,VWS V14.00,2013-05-26 06:33:00,
2013-05-26 01:38:00,55.4,50.0,30.14,East,97,0.0,8.0,82,0.00,,OVC035,0.00,VWS V14.00,2013-05-26 06:38:00,
2013-05-26 01:43:00,55.4,50.0,30.14,SE,136,5.0,7.0,82,0.00,,OVC035,0.00,VWS V14.00,2013-05-26 06:43:00,
2013-05-26 01:48:00,55.3,49.9,30.14,SE,131,5.0,7.0,82,0.00,,OVC035,0.00,VWS V14.00,2013-05-26 06:48:00,
2013-05-26 01:53:00,55.3,49.9,30.14,SE,136,0.0,7.0,82,0.00,,OVC035,0.00,VWS V14.00,2013-05-26 06:53:00,
2013-05-26 01:58:00,55.3,49.9,30.14,SE,130,0.0,7.0,82,0.00,,OVC035,0.00,VWS V14.00,2013-05-26 06:58:00,
2013-05-26 02:03:00,55.3,49.9,30.13,SE,128,0.0,9.0,82,0.00,,OVC037,0.00,VWS V14.00,2013-05-26 07:03:00,
2013-05-26 02:08:00,55.3,49.9,30.13,SE,142,7.0,10.0,82,0.00,,OVC037,0.00,VWS V14.00,2013-05-26 07:08:00,
2013-05-26 02:13:00,55.3,49.6,30.13,ESE,119,0.0,12.0,81,0.00,,OVC037,0.00,VWS V14.00,2013-05-26 07:13:00,
2013-05-26 02:18:00,55.3,49.6,30.13,ESE,113,6.0,12.0,81,0.00,,OVC037,0.00,VWS V14.00,2013-05-26 07:18:00,
2013-05-26 02:23:00,55.3,49.6,30.12,SE,124,9.0,11.0,81,0.00,,OVC037,0.00,VWS V14.00,2013-05-26 07:23:00,
2013-05-26 02:28:00,55.2,49.2,30.12,ESE,110,0.0,18.0,80,0.00,,OVC037,0.00,VWS V14.00,2013-05-26 07:28:00,
2013-05-26 02:33:00,55.2,48.8,30.11,ESE,123,5.0,13.0,79,0.00,,OVC037,0.00,VWS V14.00,2013-05-26 07:33:00,
2013-05-26 02:38:00,55.1,48.7,30.11,SE,135,0.0,13.0,79,0.00,,OVC037,0.00,VWS V14.00,2013-05-26 07:38:00,
2013-05-26 02:43:00,55.0,48.3,30.10,SE,145,11.0,13.0,78,0.00,,OVC037,0.00,VWS V14.00,2013-05-26 07:43:00,
2013-05-26 02:48:00,54.9,48.2,30.10,ESE,112,0.0,13.0,78,0.00,,OVC037,0.00,VWS V14.00,2013-05-26 07:48:00,
2013-05-26 02:53:00,54.8,48.4,30.09,East,99,0.0,6.0,79,0.00,,OVC037,0.00,VWS V14.00,2013-05-26 07:53:00,
2013-05-26 02:58:00,54.7,48.0,30.09,ESE,112,4.0,12.0,78,0.00,,OVC022,0.00,VWS V14.00,2013-05-26 07:58:00,
2013-05-26 03:03:00,54.6,47.9,30.10,SE,139,0.0,8.0,78,0.00,,OVC022,0.00,VWS V14.00,2013-05-26 08:03:00,
2013-05-26 03:08:00,54.7,48.0,30.11,East,100,0.0,8.0,78,0.00,,OVC022,0.00,VWS V14.00,2013-05-26 08:08:00,
2013-05-26 03:13:00,54.6,47.9,30.11,ESE,113,0.0,7.0,78,0.00,,OVC022,0.00,VWS V14.00,2013-05-26 08:13:00,
2013-05-26 03:18:00,54.6,47.9,30.12,SE,140,7.0,7.0,78,0.00,,OVC022,0.00,VWS V14.00,2013-05-26 08:18:00,
2013-05-26 03:23:00,54.6,47.5,30.12,ESE,105,0.0,11.0,77,0.00,,OVC022,0.00,VWS V14.00,2013-05-26 08:23:00,
2013-05-26 03:28:00,54.6,47.9,30.12,East,96,0.0,11.0,78,0.00,,OVC022,0.00,VWS V14.00,2013-05-26 08:28:00,
2013-05-26 03:33:00,54.6,47.5,30.12,SE,139,0.0,7.0,77,0.00,,OVC022,0.00,VWS V14.00,2013-05-26 08:33:00,
2013-05-26 03:38:00,54.5,47.5,30.12,SE,137,0.0,9.0,77,0.00,,OVC022,0.00,VWS V14.00,2013-05-26 08:38:00,
2013-05-26 03:43:00,54.5,47.5,30.13,SE,135,0.0,6.0,77,0.00,,OVC022,0.00,VWS V14.00,2013-05-26 08:43:00,
2013-05-26 03:48:00,54.5,47.5,30.13,SSE,158,0.0,7.0,77,0.00,,OVC022,0.00,VWS V14.00,2013-05-26 08:48:00,
2013-05-26 03:53:00,54.4,47.3,30.13,SE,136,9.0,9.0,77,0.00,,OVC022,0.00,VWS V14.00,2013-05-26 08:53:00,
2013-05-26 03:58:00,54.3,47.2,30.13,SE,143,7.0,9.0,77,0.00,,OVC022,0.00,VWS V14.00,2013-05-26 08:58:00,
2013-05-26 04:03:00,54.2,47.5,30.12,ESE,120,0.0,7.0,78,0.00,,OVC026,0.00,VWS V14.00,2013-05-26 09:03:00,
2013-05-26 04:08:00,54.0,47.3,30.12,SE,129,0.0,7.0,78,0.00,,OVC026,0.00,VWS V14.00,2013-05-26 09:08:00,
2013-05-26 04:13:00,53.8,47.1,30.12,ESE,114,1.0,6.0,78,0.00,,OVC026,0.00,VWS V14.00,2013-05-26 09:13:00,
2013-05-26 04:18:00,53.6,46.9,30.11,ESE,121,3.0,6.0,78,0.00,,OVC026,0.00,VWS V14.00,2013-05-26 09:18:00,
2013-05-26 04:23:00,53.5,47.2,30.11,ESE,118,0.0,9.0,79,0.00,,OVC026,0.00,VWS V14.00,2013-05-26 09:23:00,
2013-05-26 04:28:00,53.4,47.1,30.11,ESE,117,0.0,9.0,79,0.00,,OVC026,0.00,VWS V14.00,2013-05-26 09:28:00,
2013-05-26 04:33:00,53.4,47.1,30.11,ESE,112,0.0,7.0,79,0.00,,SCT026,0.00,VWS V14.00,2013-05-26 09:33:00,
2013-05-26 04:38:00,53.3,47.0,30.11,ESE,113,6.0,8.0,79,0.00,,SCT026,0.00,VWS V14.00,2013-05-26 09:38:00,
2013-05-26 04:43:00,53.2,46.9,30.12,SE,144,3.0,8.0,79,0.00,,SCT026,0.00,VWS V14.00,2013-05-26 09:43:00,
2013-05-26 04:48:00,53.3,47.0,30.12,ESE,115,0.0,8.0,79,0.00,,SCT026,0.00,VWS V14.00,2013-05-26 09:48:00,
2013-05-26 04:53:00,53.3,47.0,30.12,SE,131,1.0,8.0,79,0.00,,BKN026,0.00,VWS V14.00,2013-05-26 09:53:00,
2013-05-26 04:58:00,53.4,47.1,30.12,SE,127,0.0,8.0,79,0.00,,BKN026,0.00,VWS V14.00,2013-05-26 09:58:00,
2013-05-26 05:03:00,53.4,47.4,30.12,SE,140,3.0,10.0,80,0.00,,BKN026,0.00,VWS V14.00,2013-05-26 10:03:00,
2013-05-26 05:08:00,53.5,47.5,30.12,SE,126,3.0,10.0,80,0.00,,BKN026,0.00,VWS V14.00,2013-05-26 10:08:00,
2013-05-26 05:13:00,53.5,47.2,30.12,SE,144,2.0,10.0,79,0.00,,BKN026,0.00,VWS V14.00,2013-05-26 10:13:00,
2013-05-26 05:18:00,53.6,47.3,30.12,SE,138,5.0,10.0,79,0.00,,BKN026,0.00,VWS V14.00,2013-05-26 10:18:00,
2013-05-26 05:23:00,53.6,47.3,30.12,SSE,147,0.0,7.0,79,0.00,,BKN026,0.00,VWS V14.00,2013-05-26 10:23:00,
2013-05-26 05:28:00,53.7,47.3,30.11,SE,138,0.0,11.0,79,0.00,,BKN026,0.00,VWS V14.00,2013-05-26 10:28:00,
2013-05-26 05:33:00,53.7,47.3,30.11,SE,136,3.0,8.0,79,0.00,,BKN026,0.00,VWS V14.00,2013-05-26 10:33:00,
2013-05-26 05:38:00,53.7,47.3,30.11,SE,136,0.0,10.0,79,0.00,,BKN026,0.00,VWS V14.00,2013-05-26 10:38:00,
2013-05-26 05:43:00,53.7,47.7,30.11,ESE,114,6.0,9.0,80,0.00,,BKN026,0.00,VWS V14.00,2013-05-26 10:43:00,
2013-05-26 05:49:00,53.8,47.5,30.10,ESE,111,0.0,13.0,79,0.00,,BKN026,0.00,VWS V14.00,2013-05-26 10:49:00,
2013-05-26 05:53:00,53.8,47.5,30.10,SE,127,6.0,11.0,79,0.00,,BKN026,0.00,VWS V14.00,2013-05-26 10:53:00,
2013-05-26 05:58:00,53.8,47.5,30.10,ESE,115,0.0,11.0,79,0.00,,OVC026,0.00,VWS V14.00,2013-05-26 10:58:00,
2013-05-26 06:03:00,53.8,47.8,30.10,ESE,115,5.0,10.0,80,0.00,,OVC026,0.00,VWS V14.00,2013-05-26 11:03:00,
2013-05-26 06:09:00,53.8,47.5,30.10,ESE,108,0.0,10.0,79,0.00,,OVC026,0.00,VWS V14.00,2013-05-26 11:09:00,
2013-05-26 06:13:00,53.9,47.5,30.11,ESE,113,4.0,11.0,79,0.00,,OVC026,0.00,VWS V14.00,2013-05-26 11:13:00,
2013-05-26 06:19:00,53.9,47.5,30.11,East,96,3.0,11.0,79,0.00,,OVC026,0.00,VWS V14.00,2013-05-26 11:19:00,
2013-05-26 06:24:00,53.9,47.5,30.11,ESE,104,8.0,11.0,79,0.00,,OVC026,0.00,VWS V14.00,2013-05-26 11:24:00,
2013-05-26 06:29:00,53.9,47.5,30.11,ESE,106,3.0,11.0,79,0.00,,OVC026,0.00,VWS V14.00,2013-05-26 11:29:00,
2013-05-26 06:34:00,53.9,47.2,30.11,ESE,115,4.0,12.0,78,0.00,,OVC026,0.00,VWS V14.00,2013-05-26 11:34:00,
2013-05-26 06:39:00,54.0,47.0,30.11,SE,125,3.0,13.0,77,0.00,,OVC026,0.00,VWS V14.00,2013-05-26 11:39:00,
2013-05-26 06:44:00,54.1,46.7,30.11,SE,138,6.0,11.0,76,0.00,,OVC026,0.00,VWS V14.00,2013-05-26 11:44:00,
2013-05-26 06:49:00,54.1,46.4,30.11,ESE,116,3.0,12.0,75,0.00,,OVC026,0.00,VWS V14.00,2013-05-26 11:49:00,
2013-05-26 06:54:00,54.1,46.0,30.10,ESE,109,3.0,11.0,74,0.00,,OVC026,0.00,VWS V14.00,2013-05-26 11:54:00,
2013-05-26 06:59:00,54.1,45.7,30.11,SE,143,7.0,17.0,73,0.00,,OVC026,0.00,VWS V14.00,2013-05-26 11:59:00,
2013-05-26 07:04:00,54.2,46.1,30.11,ESE,121,5.0,16.0,74,0.00,,OVC024,0.00,VWS V14.00,2013-05-26 12:04:00,
2013-05-26 07:09:00,54.1,46.0,30.11,ESE,111,4.0,16.0,74,0.00,,OVC024,0.00,VWS V14.00,2013-05-26 12:09:00,
2013-05-26 07:14:00,54.1,46.0,30.11,SE,129,6.0,8.0,74,0.00,,OVC024,0.00,VWS V14.00,2013-05-26 12:14:00,
2013-05-26 07:19:00,54.2,46.1,30.11,ESE,121,3.0,10.0,74,0.00,,OVC024,0.00,VWS V14.00,2013-05-26 12:19:00,
2013-05-26 07:24:00,54.2,46.1,30.11,SE,135,3.0,9.0,74,0.00,,OVC024,0.00,VWS V14.00,2013-05-26 12:24:00,
2013-05-26 07:29:00,54.3,46.2,30.11,ESE,121,8.0,10.0,74,0.00,,OVC024,0.00,VWS V14.00,2013-05-26 12:29:00,
2013-05-26 07:34:00,54.4,46.3,30.11,SE,138,1.0,12.0,74,0.00,,SCT024,0.00,VWS V14.00,2013-05-26 12:34:00,
2013-05-26 07:39:00,54.5,46.8,30.11,East,99,3.0,12.0,75,0.00,,SCT024,0.00,VWS V14.00,2013-05-26 12:39:00,
2013-05-26 07:44:00,54.7,46.9,30.11,SE,136,1.0,14.0,75,0.00,,SCT024,0.00,VWS V14.00,2013-05-26 12:44:00,
2013-05-26 07:49:00,54.8,46.7,30.11,ESE,105,0.0,14.0,74,0.00,,SCT024,0.00,VWS V14.00,2013-05-26 12:49:00,
2013-05-26 07:54:00,54.9,46.8,30.10,SE,130,3.0,10.0,74,0.00,,SCT024,0.00,VWS V14.00,2013-05-26 12:54:00,
2013-05-26 07:59:00,55.1,46.6,30.10,SE,137,3.0,12.0,73,0.00,,SCT024,0.00,VWS V14.00,2013-05-26 12:59:00,
2013-05-26 08:04:00,55.1,46.6,30.11,SE,134,2.0,11.0,73,0.00,,BKN025,0.00,VWS V14.00,2013-05-26 13:04:00,
2013-05-26 08:09:00,55.2,46.7,30.11,SSE,158,7.0,13.0,73,0.00,,BKN025,0.00,VWS V14.00,2013-05-26 13:09:00,
2013-05-26 08:14:00,55.2,46.7,30.11,SE,131,1.0,10.0,73,0.00,,BKN025,0.00,VWS V14.00,2013-05-26 13:14:00,
2013-05-26 08:19:00,55.1,46.6,30.12,SE,131,3.0,13.0,73,0.00,,BKN025,0.00,VWS V14.00,2013-05-26 13:19:00,
2013-05-26 08:24:00,55.1,47.0,30.11,SE,130,7.0,9.0,74,0.00,,BKN025,0.00,VWS V14.00,2013-05-26 13:24:00,
2013-05-26 08:29:00,55.1,47.0,30.11,SE,134,3.0,10.0,74,0.00,,BKN025,0.00,VWS V14.00,2013-05-26 13:29:00,
2013-05-26 08:34:00,55.2,47.1,30.11,SE,133,0.0,11.0,74,0.00,,BKN025,0.00,VWS V14.00,2013-05-26 13:34:00,
2013-05-26 08:39:00,55.2,47.1,30.12,SE,132,0.0,11.0,74,0.00,,BKN025,0.00,VWS V14.00,2013-05-26 13:39:00,
2013-05-26 08:44:00,55.3,47.2,30.12,SE,134,2.0,12.0,74,0.00,,BKN025,0.00,VWS V14.00,2013-05-26 13:44:00,
2013-05-26 08:49:00,55.3,47.2,30.12,SE,142,1.0,12.0,74,0.00,,BKN025,0.00,VWS V14.00,2013-05-26 13:49:00,
2013-05-26 08:54:00,55.3,47.5,30.12,SE,140,0.0,9.0,75,0.00,,BKN025,0.00,VWS V14.00,2013-05-26 13:54:00,
2013-05-26 08:59:00,55.4,47.6,30.12,SE,141,3.0,17.0,75,0.00,,BKN025,0.00,VWS V14.00,2013-05-26 13:59:00,
2013-05-26 09:04:00,55.3,47.9,30.12,SE,137,11.0,15.0,76,0.00,,BKN025,0.00,VWS V14.00,2013-05-26 14:04:00,
2013-05-26 09:09:00,55.2,48.1,30.12,SE,146,10.0,16.0,77,0.00,,OVC023,0.00,VWS V14.00,2013-05-26 14:09:00,
2013-05-26 09:14:00,55.2,48.1,30.12,SE,128,2.0,15.0,77,0.00,,OVC023,0.00,VWS V14.00,2013-05-26 14:14:00,
2013-05-26 09:19:00,55.2,48.5,30.11,SSE,147,2.0,15.0,78,0.00,,OVC023,0.00,VWS V14.00,2013-05-26 14:19:00,
2013-05-26 09:24:00,55.3,48.9,30.11,SE,144,0.0,11.0,79,0.00,,OVC023,0.00,VWS V14.00,2013-05-26 14:24:00,
2013-05-26 09:29:00,55.5,49.1,30.11,ESE,121,4.0,11.0,79,0.00,,OVC023,0.00,VWS V14.00,2013-05-26 14:29:00,
2013-05-26 09:34:00,56.0,49.6,30.10,ESE,109,7.0,10.0,79,0.00,,OVC023,0.00,VWS V14.00,2013-05-26 14:34:00,
2013-05-26 09:39:00,56.6,49.8,30.10,SE,127,0.0,12.0,78,0.00,,OVC023,0.00,VWS V14.00,2013-05-26 14:39:00,
2013-05-26 09:44:00,56.6,49.5,30.11,South,170,4.0,19.0,77,0.00,,OVC023,0.00,VWS V14.00,2013-05-26 14:44:00,
2013-05-26 09:49:00,56.2,49.1,30.11,SE,134,8.0,19.0,77,0.00,,OVC023,0.00,VWS V14.00,2013-05-26 14:49:00,
2013-05-26 09:54:00,56.0,48.9,30.11,SE,145,2.0,11.0,77,0.00,,OVC023,0.00,VWS V14.00,2013-05-26 14:54:00,
2013-05-26 09:59:00,56.1,49.0,30.10,ESE,121,4.0,11.0,77,0.00,,OVC031,0.00,VWS V14.00,2013-05-26 14:59:00,
2013-05-26 10:04:00,56.4,48.6,30.10,SE,137,7.0,23.0,75,0.00,,OVC031,0.00,VWS V14.00,2013-05-26 15:04:00,
2013-05-26 10:09:00,56.3,48.5,30.11,SE,142,7.0,23.0,75,0.00,,OVC031,0.00,VWS V14.00,2013-05-26 15:09:00,
2013-05-26 10:14:00,56.2,48.4,30.11,SSE,149,13.0,21.0,75,0.00,,OVC031,0.00,VWS V14.00,2013-05-26 15:14:00,
2013-05-26 10:19:00,56.2,48.8,30.11,SE,135,5.0,21.0,76,0.00,,OVC031,0.00,VWS V14.00,2013-05-26 15:19:00,
2013-05-26 10:24:00,56.2,48.8,30.10,SE,135,5.0,16.0,76,0.00,,OVC031,0.00,VWS V14.00,2013-05-26 15:24:00,
2013-05-26 10:29:00,56.3,48.8,30.10,SE,135,4.0,19.0,76,0.00,,OVC031,0.00,VWS V14.00,2013-05-26 15:29:00,
2013-05-26 10:34:00,56.2,48.8,30.10,SE,136,1.0,16.0,76,0.00,,OVC031,0.00,VWS V14.00,2013-05-26 15:34:00,
2013-05-26 10:39:00,56.3,48.8,30.10,SE,129,2.0,20.0,76,0.00,,OVC031,0.00,VWS V14.00,2013-05-26 15:39:00,
2013-05-26 10:44:00,56.3,48.5,30.10,ESE,112,6.0,22.0,75,0.00,,OVC031,0.00,VWS V14.00,2013-05-26 15:44:00,
2013-05-26 10:50:00,56.3,48.5,30.09,SSE,150,6.0,22.0,75,0.00,,OVC031,0.00,VWS V14.00,2013-05-26 15:50:00,
2013-05-26 10:55:00,56.4,48.6,30.09,SE,126,10.0,18.0,75,0.00,,OVC031,0.00,VWS V14.00,2013-05-26 15:55:00,
2013-05-26 11:00:00,56.5,48.7,30.09,SE,132,5.0,18.0,75,0.00,,OVC023,0.00,VWS V14.00,2013-05-26 16:00:00,
2013-05-26 11:05:00,56.7,48.9,30.09,SE,138,5.0,18.0,75,0.00,,OVC023,0.00,VWS V14.00,2013-05-26 16:05:00,
2013-05-26 11:10:00,56.7,48.9,30.09,SE,134,8.0,8.0,75,0.00,,OVC023,0.00,VWS V14.00,2013-05-26 16:10:00,
2013-05-26 11:15:00,56.7,48.9,30.09,SE,132,11.0,20.0,75,0.00,,OVC023,0.00,VWS V14.00,2013-05-26 16:15:00,
2013-05-26 11:20:00,56.7,49.2,30.09,SE,138,4.0,20.0,76,0.00,,OVC023,0.00,VWS V14.00,2013-05-26 16:20:00,
2013-05-26 11:25:00,56.6,48.8,30.08,SE,134,4.0,22.0,75,0.00,,OVC023,0.00,VWS V14.00,2013-05-26 16:25:00,
2013-05-26 11:30:00,56.6,48.8,30.08,ESE,105,2.0,2.0,75,0.00,,OVC023,0.00,VWS V14.00,2013-05-26 16:30:00,
2013-05-26 11:35:00,56.7,48.9,30.08,SE,144,5.0,18.0,75,0.00,,OVC023,0.00,VWS V14.00,2013-05-26 16:35:00,
2013-05-26 11:40:00,56.8,48.6,30.08,ESE,123,8.0,12.0,74,0.00,,OVC023,0.00,VWS V14.00,2013-05-26 16:40:00,
2013-05-26 11:45:00,56.8,48.6,30.08,SSE,148,10.0,18.0,74,0.00,,OVC023,0.00,VWS V14.00,2013-05-26 16:45:00,
2013-05-26 11:50:00,56.7,48.9,30.08,SE,128,14.0,14.0,75,0.00,,OVC023,0.00,VWS V14.00,2013-05-26 16:50:00,
2013-05-26 11:55:00,56.6,48.4,30.08,SE,133,5.0,19.0,74,0.00,,OVC023,0.00,VWS V14.00,2013-05-26 16:55:00,
2013-05-26 12:00:00,56.7,48.2,30.08,SE,146,20.0,20.0,73,0.00,,OVC025,0.00,VWS V14.00,2013-05-26 17:00:00,
2013-05-26 12:05:00,56.7,48.5,30.07,ESE,117,7.0,26.0,74,0.00,,OVC025,0.00,VWS V14.00,2013-05-26 17:05:00,
2013-05-26 12:10:00,57.2,48.6,30.07,SE,135,12.0,16.0,73,0.00,,OVC025,0.00,VWS V14.00,2013-05-26 17:10:00,
2013-05-26 12:15:00,57.6,49.0,30.07,SE,145,16.0,21.0,73,0.00,,OVC025,0.00,VWS V14.00,2013-05-26 17:15:00,
2013-05-26 12:20:00,58.0,49.4,30.06,SE,125,4.0,7.0,73,0.00,,OVC025,0.00,VWS V14.00,2013-05-26 17:20:00,
2013-05-26 12:25:00,58.7,49.7,30.06,East,96,12.0,14.0,72,0.00,,OVC025,0.00,VWS V14.00,2013-05-26 17:25:00,
2013-05-26 12:30:00,58.9,49.5,30.06,SE,144,5.0,14.0,71,0.00,,OVC025,0.00,VWS V14.00,2013-05-26 17:30:00,
2013-05-26 12:35:00,58.8,49.8,30.06,SE,133,0.0,18.0,72,0.00,,OVC025,0.00,VWS V14.00,2013-05-26 17:35:00,
2013-05-26 12:40:00,58.7,49.7,30.06,ESE,122,6.0,6.0,72,0.00,,OVC035,0.00,VWS V14.00,2013-05-26 17:40:00,
2013-05-26 12:45:00,59.0,50.0,30.06,ESE,122,7.0,19.0,72,0.00,,OVC035,0.00,VWS V14.00,2013-05-26 17:45:00,
2013-05-26 12:50:00,59.4,50.0,30.06,SE,134,6.0,15.0,71,0.00,,OVC035,0.00,VWS V14.00,2013-05-26 17:50:00,
2013-05-26 12:55:00,59.6,49.8,30.05,SE,125,5.0,18.0,70,0.00,,OVC035,0.00,VWS V14.00,2013-05-26 17:55:00,
2013-05-26 13:00:00,60.0,50.6,30.06,ESE,108,7.0,11.0,71,0.00,,SCT060,0.00,VWS V14.00,2013-05-26 18:00:00,
2013-05-26 13:05:00,60.7,50.5,30.07,SE,144,10.0,24.0,69,0.00,,SCT060,0.00,VWS V14.00,2013-05-26 18:05:00,
2013-05-26 13:10:00,60.7,50.5,30.07,ESE,120,8.0,16.0,69,0.00,,SCT060,0.00,VWS V14.00,2013-05-26 18:10:00,
2013-05-26 13:15:00,60.7,50.5,30.08,ESE,121,6.0,20.0,69,0.00,,SCT060,0.00,VWS V14.00,2013-05-26 18:15:00,
2013-05-26 13:20:00,60.9,50.7,30.08,SE,143,12.0,12.0,69,0.00,,SCT060,0.00,VWS V14.00,2013-05-26 18:20:00,
2013-05-26 13:25:00,60.7,50.1,30.08,SE,139,6.0,22.0,68,0.00,,SCT060,0.00,VWS V14.00,2013-05-26 18:25:00,
2013-05-26 13:30:00,60.4,50.2,30.08,SE,135,6.0,16.0,69,0.00,,SCT060,0.00,VWS V14.00,2013-05-26 18:30:00,
2013-05-26 13:35:00,60.1,49.9,30.08,SE,142,12.0,22.0,69,0.00,,SCT060,0.00,VWS V14.00,2013-05-26 18:35:00,
2013-05-26 13:40:00,60.0,49.8,30.08,ESE,116,4.0,13.0,69,0.00,,OVC047,0.00,VWS V14.00,2013-05-26 18:40:00,
2013-05-26 13:45:00,60.2,50.0,30.08,SE,144,11.0,15.0,69,0.00,,OVC047,0.00,VWS V14.00,2013-05-26 18:45:00,
2013-05-26 13:50:00,60.3,50.1,30.08,ESE,116,3.0,5.0,69,0.00,,OVC047,0.00,VWS V14.00,2013-05-26 18:50:00,
2013-05-26 13:55:00,60.3,49.7,30.08,SSE,148,3.0,20.0,68,0.00,,BKN055,0.00,VWS V14.00,2013-05-26 18:55:00,
2013-05-26 14:00:00,59.9,49.3,30.09,SSE,160,9.0,15.0,68,0.00,,OVC065,0.00,VWS V14.00,2013-05-26 19:00:00,
2013-05-26 14:05:00,59.7,49.1,30.08,SE,132,11.0,19.0,68,0.00,,OVC065,0.00,VWS V14.00,2013-05-26 19:05:00,
2013-05-26 14:10:00,59.6,49.4,30.09,South,178,6.0,13.0,69,0.00,,OVC065,0.00,VWS V14.00,2013-05-26 19:10:00,
2013-05-26 14:15:00,59.6,49.4,30.09,SE,141,5.0,14.0,69,0.00,,OVC065,0.00,VWS V14.00,2013-05-26 19:15:00,
2013-05-26 14:20:00,59.7,49.1,30.09,SE,140,11.0,14.0,68,0.00,,BKN055,0.00,VWS V14.00,2013-05-26 19:20:00,
2013-05-26 14:25:00,59.6,49.0,30.09,SSE,167,3.0,19.0,68,0.00,,BKN055,0.00,VWS V14.00,2013-05-26 19:25:00,
2013-05-26 14:30:00,59.4,49.2,30.09,SE,138,11.0,13.0,69,0.00,,BKN055,0.00,VWS V14.00,2013-05-26 19:30:00,
2013-05-26 14:35:00,59.3,49.1,30.09,SE,132,4.0,15.0,69,0.00,,OVC031,0.00,VWS V14.00,2013-05-26 19:35:00,
2013-05-26 14:40:00,59.2,49.4,30.09,SSE,157,5.0,9.0,70,0.00,,OVC031,0.00,VWS V14.00,2013-05-26 19:40:00,
2013-05-26 14:45:00,59.2,49.4,30.09,SE,138,5.0,15.0,70,0.00,,OVC031,0.00,VWS V14.00,2013-05-26 19:45:00,
2013-05-26 14:50:00,59.2,49.0,30.09,SE,146,9.0,17.0,69,0.00,,OVC031,0.00,VWS V14.00,2013-05-26 19:50:00,
2013-05-26 14:55:00,59.2,49.4,30.09,SE,136,9.0,17.0,70,0.00,,OVC031,0.00,VWS V14.00,2013-05-26 19:55:00,
2013-05-26 15:00:00,59.2,49.0,30.09,SE,143,7.0,11.0,69,0.00,,OVC031,0.00,VWS V14.00,2013-05-26 20:00:00,
2013-05-26 15:05:00,59.1,49.0,30.09,SSE,160,5.0,12.0,69,0.00,,OVC031,0.00,VWS V14.00,2013-05-26 20:05:00,
2013-05-26 15:10:00,59.1,49.0,30.09,SE,146,6.0,14.0,69,0.00,,OVC031,0.00,VWS V14.00,2013-05-26 20:10:00,
2013-05-26 15:15:00,59.2,49.4,30.09,SE,142,0.0,14.0,70,0.00,,OVC031,0.00,VWS V14.00,2013-05-26 20:15:00,
2013-05-26 15:20:00,59.4,49.6,30.09,SE,145,0.0,7.0,70,0.00,,OVC031,0.00,VWS V14.00,2013-05-26 20:20:00,
2013-05-26 15:25:00,59.5,49.7,30.09,SE,145,5.0,9.0,70,0.00,,OVC031,0.00,VWS V14.00,2013-05-26 20:25:00,
2013-05-26 15:30:00,59.6,49.8,30.09,SE,141,3.0,8.0,70,0.00,,OVC031,0.00,VWS V14.00,2013-05-26 20:30:00,
2013-05-26 15:35:00,59.8,50.0,30.08,SE,134,4.0,11.0,70,0.00,,OVC031,0.00,VWS V14.00,2013-05-26 20:35:00,
2013-05-26 15:40:00,60.0,49.8,30.08,SE,145,0.0,4.0,69,0.00,,OVC031,0.00,VWS V14.00,2013-05-26 20:40:00,
2013-05-26 15:46:00,60.1,49.5,30.08,ESE,115,8.0,13.0,68,0.00,,OVC031,0.00,VWS V14.00,2013-05-26 20:46:00,
2013-05-26 15:51:00,60.0,49.4,30.08,SE,138,9.0,15.0,68,0.00,,OVC031,0.00,VWS V14.00,2013-05-26 20:51:00,
2013-05-26 15:56:00,59.9,49.3,30.08,SE,146,10.0,18.0,68,0.00,,OVC031,0.00,VWS V14.00,2013-05-26 20:56:00,
2013-05-26 16:01:00,59.8,49.2,30.08,ESE,112,12.0,18.0,68,0.00,,OVC033,0.00,VWS V14.00,2013-05-26 21:01:00,
2013-05-26 16:06:00,59.9,49.3,30.08,SE,139,11.0,18.0,68,0.00,,OVC033,0.00,VWS V14.00,2013-05-26 21:06:00,
2013-05-26 16:11:00,59.9,48.9,30.08,SSE,157,9.0,14.0,67,0.00,,OVC033,0.00,VWS V14.00,2013-05-26 21:11:00,
2013-05-26 16:16:00,59.8,48.8,30.08,SSE,147,6.0,16.0,67,0.00,,OVC033,0.00,VWS V14.00,2013-05-26 21:16:00,
2013-05-26 16:21:00,59.8,48.8,30.08,SSE,148,9.0,10.0,67,0.00,,OVC033,0.00,VWS V14.00,2013-05-26 21:21:00,
2013-05-26 16:26:00,59.8,48.8,30.08,SE,139,9.0,15.0,67,0.00,,OVC033,0.00,VWS V14.00,2013-05-26 21:26:00,
2013-05-26 16:31:00,59.7,48.7,30.08,SSE,153,3.0,9.0,67,0.00,,OVC033,0.00,VWS V14.00,2013-05-26 21:31:00,
2013-05-26 16:36:00,59.8,48.8,30.08,SE,132,14.0,15.0,67,0.00,,OVC033,0.00,VWS V14.00,2013-05-26 21:36:00,
2013-05-26 16:41:00,59.8,48.8,30.08,East,89,3.0,6.0,67,0.00,,OVC033,0.00,VWS V14.00,2013-05-26 21:41:00,
2013-05-26 16:46:00,59.7,48.7,30.08,SSE,161,6.0,14.0,67,0.00,,OVC033,0.00,VWS V14.00,2013-05-26 21:46:00,
2013-05-26 16:51:00,59.7,48.7,30.08,SE,139,10.0,14.0,67,0.00,,OVC033,0.00,VWS V14.00,2013-05-26 21:51:00,
2013-05-26 16:56:00,59.7,48.7,30.08,SSE,158,5.0,15.0,67,0.00,,OVC033,0.00,VWS V14.00,2013-05-26 21:56:00,
2013-05-26 17:01:00,59.7,48.3,30.08,SE,141,12.0,13.0,66,0.00,,OVC032,0.00,VWS V14.00,2013-05-26 22:01:00,
2013-05-26 17:06:00,59.7,48.7,30.08,SE,139,6.0,14.0,67,0.00,,OVC032,0.00,VWS V14.00,2013-05-26 22:06:00,
2013-05-26 17:11:00,59.8,48.4,30.08,SE,145,8.0,13.0,66,0.00,,OVC032,0.00,VWS V14.00,2013-05-26 22:11:00,
2013-05-26 17:16:00,59.9,48.5,30.08,SE,142,10.0,16.0,66,0.00,,OVC032,0.00,VWS V14.00,2013-05-26 22:16:00,
2013-05-26 17:21:00,60.0,48.6,30.07,SE,144,5.0,14.0,66,0.00,,OVC032,0.00,VWS V14.00,2013-05-26 22:21:00,
2013-05-26 17:26:00,60.1,48.3,30.07,SE,136,13.0,15.0,65,0.00,,OVC032,0.00,VWS V14.00,2013-05-26 22:26:00,
2013-05-26 17:31:00,60.2,47.6,30.07,SE,131,5.0,15.0,63,0.00,,OVC032,0.00,VWS V14.00,2013-05-26 22:31:00,
2013-05-26 17:36:00,60.2,47.6,30.07,SE,141,7.0,15.0,63,0.00,,OVC032,0.00,VWS V14.00,2013-05-26 22:36:00,
2013-05-26 17:41:00,60.0,47.0,30.07,ESE,112,1.0,12.0,62,0.00,,OVC032,0.00,VWS V14.00,2013-05-26 22:41:00,
2013-05-26 17:46:00,60.1,47.0,30.07,SE,135,6.0,12.0,62,0.00,,OVC032,0.00,VWS V14.00,2013-05-26 22:46:00,
2013-05-26 17:51:00,60.0,46.5,30.07,SSE,155,8.0,8.0,61,0.00,,OVC032,0.00,VWS V14.00,2013-05-26 22:51:00,
2013-05-26 17:56:00,59.9,46.9,30.07,ESE,122,0.0,15.0,62,0.00,,OVC032,0.00,VWS V14.00,2013-05-26 22:56:00,
2013-05-26 18:01:00,60.0,47.0,30.07,ESE,113,3.0,10.0,62,0.00,,OVC032,0.00,VWS V14.00,2013-05-26 23:01:00,
2013-05-26 18:06:00,60.1,47.0,30.06,SE,131,5.0,11.0,62,0.00,,OVC075,0.00,VWS V14.00,2013-05-26 23:06:00,
2013-05-26 18:11:00,60.3,47.2,30.06,ESE,121,0.0,1.0,62,0.00,,OVC075,0.00,VWS V14.00,2013-05-26 23:11:00,
2013-05-26 18:16:00,60.3,47.2,30.06,SE,137,0.0,8.0,62,0.00,,OVC075,0.00,VWS V14.00,2013-05-26 23:16:00,
2013-05-26 18:21:00,60.3,46.8,30.06,SE,127,0.0,1.0,61,0.00,,OVC075,0.00,VWS V14.00,2013-05-26 23:21:00,
2013-05-26 18:26:00,60.4,47.3,30.06,ESE,121,0.0,12.0,62,0.00,,OVC075,0.00,VWS V14.00,2013-05-26 23:26:00,
2013-05-26 18:31:00,60.4,46.9,30.06,SSE,150,2.0,15.0,61,0.00,,OVC075,0.00,VWS V14.00,2013-05-26 23:31:00,
2013-05-26 18:36:00,60.3,47.2,30.06,SE,124,0.0,15.0,62,0.00,,OVC075,0.00,VWS V14.00,2013-05-26 23:36:00,
2013-05-26 18:41:00,60.4,47.3,30.06,SE,125,2.0,6.0,62,0.00,,OVC075,0.00,VWS V14.00,2013-05-26 23:41:00,
2013-05-26 18:46:00,60.3,46.8,30.06,SE,131,5.0,12.0,61,0.00,,OVC075,0.00,VWS V14.00,2013-05-26 23:46:00,
2013-05-26 18:51:00,60.2,46.3,30.06,SE,139,5.0,12.0,60,0.00,,OVC075,0.00,VWS V14.00,2013-05-26 23:51:00,
2013-05-26 18:56:00,60.1,46.2,30.06,ESE,118,7.0,13.0,60,0.00,,OVC075,0.00,VWS V14.00,2013-05-26 23:56:00,
2013-05-26 19:01:00,60.1,46.2,30.06,SE,133,5.0,11.0,60,0.00,,OVC048,0.00,VWS V14.00,2013-05-27 00:01:00,
2013-05-26 19:06:00,60.1,46.6,30.06,ESE,114,6.0,14.0,61,0.00,,OVC048,0.00,VWS V14.00,2013-05-27 00:06:00,
2013-05-26 19:11:00,60.1,46.2,30.06,ESE,117,6.0,12.0,60,0.00,,OVC048,0.00,VWS V14.00,2013-05-27 00:11:00,
2013-05-26 19:16:00,60.0,46.1,30.06,SE,141,8.0,14.0,60,0.00,,OVC048,0.00,VWS V14.00,2013-05-27 00:16:00,
2013-05-26 19:21:00,60.0,46.1,30.06,SE,134,13.0,14.0,60,0.00,,OVC048,0.00,VWS V14.00,2013-05-27 00:21:00,
2013-05-26 19:26:00,59.9,45.5,30.06,SE,144,14.0,14.0,59,0.00,,OVC048,0.00,VWS V14.00,2013-05-27 00:26:00,
2013-05-26 19:31:00,59.9,45.5,30.06,ESE,117,5.0,14.0,59,0.00,,OVC048,0.00,VWS V14.00,2013-05-27 00:31:00,
2013-05-26 19:36:00,59.9,46.0,30.06,ESE,103,0.0,14.0,60,0.00,,OVC048,0.00,VWS V14.00,2013-05-27 00:36:00,
2013-05-26 19:41:00,60.0,45.7,30.05,SE,134,0.0,11.0,59,0.00,,OVC048,0.00,VWS V14.00,2013-05-27 00:41:00,
2013-05-26 19:46:00,59.8,45.5,30.06,SE,126,5.0,11.0,59,0.00,,OVC048,0.00,VWS V14.00,2013-05-27 00:46:00,
2013-05-26 19:51:00,59.7,45.4,30.06,SE,131,0.0,1.0,59,0.00,,OVC048,0.00,VWS V14.00,2013-05-27 00:51:00,
2013-05-26 19:56:00,59.7,45.8,30.06,ESE,111,0.0,11.0,60,0.00,,OVC048,0.00,VWS V14.00,2013-05-27 00:56:00,
2013-05-26 20:01:00,59.6,45.7,30.06,SE,131,8.0,12.0,60,0.00,,OVC048,0.00,VWS V14.00,2013-05-27 01:01:00,
2013-05-26 20:06:00,59.5,45.2,30.06,ESE,121,3.0,12.0,59,0.00,,OVC034,0.00,VWS V14.00,2013-05-27 01:06:00,
2013-05-26 20:11:00,59.4,45.5,30.06,SE,127,0.0,4.0,60,0.00,,OVC034,0.00,VWS V14.00,2013-05-27 01:11:00,
2013-05-26 20:16:00,59.3,45.9,30.06,SE,131,0.0,9.0,61,0.00,,OVC034,0.00,VWS V14.00,2013-05-27 01:16:00,
2013-05-26 20:21:00,59.3,45.9,30.06,ESE,104,5.0,11.0,61,0.00,,OVC034,0.00,VWS V14.00,2013-05-27 01:21:00,
2013-05-26 20:26:00,59.2,45.8,30.06,SE,134,6.0,13.0,61,0.00,,OVC034,0.00,VWS V14.00,2013-05-27 01:26:00,
2013-05-26 20:32:00,59.1,45.7,30.06,SE,130,5.0,11.0,61,0.00,,OVC034,0.00,VWS V14.00,2013-05-27 01:32:00,
2013-05-26 20:37:00,59.1,45.7,30.06,ESE,103,0.0,11.0,61,0.00,,OVC034,0.00,VWS V14.00,2013-05-27 01:37:00,
2013-05-26 20:42:00,59.0,45.6,30.06,SE,135,0.0,9.0,61,0.00,,OVC034,0.00,VWS V14.00,2013-05-27 01:42:00,
2013-05-26 20:47:00,58.9,45.9,30.06,ESE,119,1.0,9.0,62,0.00,,OVC034,0.00,VWS V14.00,2013-05-27 01:47:00,
2013-05-26 20:52:00,58.8,46.2,30.06,SE,146,0.0,0.0,63,0.00,,OVC034,0.00,VWS V14.00,2013-05-27 01:52:00,
2013-05-26 20:57:00,58.7,46.2,30.06,ESE,122,0.0,9.0,63,0.00,,OVC034,0.00,VWS V14.00,2013-05-27 01:57:00,
2013-05-26 21:02:00,58.6,46.5,30.06,SSE,154,0.0,9.0,64,0.00,,OVC034,0.00,VWS V14.00,2013-05-27 02:02:00,
2013-05-26 21:07:00,58.6,46.5,30.06,SE,140,0.0,12.0,64,0.00,,OVC030,0.00,VWS V14.00,2013-05-27 02:07:00,
2013-05-26 21:12:00,58.5,46.0,30.06,SE,142,0.0,7.0,63,0.00,,OVC030,0.00,VWS V14.00,2013-05-27 02:12:00,
2013-05-26 21:17:00,58.4,46.3,30.06,SE,133,0.0,7.0,64,0.00,,OVC030,0.00,VWS V14.00,2013-05-27 02:17:00,
2013-05-26 21:22:00,58.3,46.2,30.06,SE,142,0.0,11.0,64,0.00,,OVC030,0.00,VWS V14.00,2013-05-27 02:22:00,
2013-05-26 21:27:00,58.2,46.5,30.06,SE,134,0.0,11.0,65,0.00,,OVC030,0.00,VWS V14.00,2013-05-27 02:27:00,
2013-05-26 21:32:00,58.1,46.4,30.06,SE,137,0.0,0.0,65,0.00,,OVC030,0.00,VWS V14.00,2013-05-27 02:32:00,
2013-05-26 21:37:00,58.0,46.3,30.06,SE,134,0.0,5.0,65,0.00,,OVC030,0.00,VWS V14.00,2013-05-27 02:37:00,
2013-05-26 21:42:00,57.9,47.0,30.06,SSE,149,0.0,7.0,67,0.00,,OVC030,0.00,VWS V14.00,2013-05-27 02:42:00,
2013-05-26 21:47:00,57.8,47.3,30.06,South,174,0.0,7.0,68,0.00,,OVC030,0.00,VWS V14.00,2013-05-27 02:47:00,
2013-05-26 21:52:00,57.6,47.5,30.06,SSE,150,0.0,0.0,69,0.00,,OVC030,0.00,VWS V14.00,2013-05-27 02:52:00,
2013-05-26 21:57:00,57.3,48.0,30.06,SSE,159,0.0,10.0,71,0.00,,OVC030,0.00,VWS V14.00,2013-05-27 02:57:00,
2013-05-26 22:02:00,57.2,47.9,30.06,SE,133,0.0,7.0,71,0.00,,OVC030,0.00,VWS V14.00,2013-05-27 03:02:00,
2013-05-26 22:07:00,57.0,48.1,30.06,SE,133,0.0,7.0,72,0.00,,OVC030,0.00,VWS V14.00,2013-05-27 03:07:00,
2013-05-26 22:12:00,56.9,48.0,30.05,SE,140,0.0,0.0,72,0.00,,OVC030,0.00,VWS V14.00,2013-05-27 03:12:00,
2013-05-26 22:17:00,56.8,47.9,30.05,SE,139,0.0,0.0,72,0.00,,OVC030,0.00,VWS V14.00,2013-05-27 03:17:00,
2013-05-26 22:22:00,56.7,48.2,30.05,SE,126,0.0,0.0,73,0.00,,OVC030,0.00,VWS V14.00,2013-05-27 03:22:00,
2013-05-26 22:27:00,56.7,48.5,30.05,SE,129,0.0,0.0,74,0.00,,OVC030,0.00,VWS V14.00,2013-05-27 03:27:00,
2013-05-26 22:32:00,56.6,48.4,30.05,SE,129,0.0,0.0,74,0.00,,OVC030,0.00,VWS V14.00,2013-05-27 03:32:00,
2013-05-26 22:37:00,56.5,48.3,30.04,SE,129,0.0,0.0,74,0.00,,OVC028,0.00,VWS V14.00,2013-05-27 03:37:00,
2013-05-26 22:42:00,56.5,48.3,30.05,SE,129,0.0,0.0,74,0.00,,OVC028,0.00,VWS V14.00,2013-05-27 03:42:00,
2013-05-26 22:47:00,56.5,48.7,30.04,ESE,118,0.0,0.0,75,0.00,,OVC028,0.00,VWS V14.00,2013-05-27 03:47:00,
2013-05-26 22:52:00,56.5,49.0,30.04,ESE,112,0.0,0.0,76,0.00,,OVC028,0.00,VWS V14.00,2013-05-27 03:52:00,
2013-05-26 22:57:00,56.5,49.4,30.04,SE,137,0.0,0.0,77,0.00,,OVC028,0.00,VWS V14.00,2013-05-27 03:57:00,
2013-05-26 23:01:00,56.5,49.4,30.04,ESE,108,0.0,0.0,77,0.00,,OVC028,0.00,VWS V14.00,2013-05-27 04:01:00,
2013-05-26 23:06:00,56.4,48.9,30.04,SE,142,0.0,0.0,76,0.00,,OVC026,0.00,VWS V14.00,2013-05-27 04:06:00,
2013-05-26 23:11:00,56.4,48.9,30.03,ESE,112,0.0,0.0,76,0.00,,OVC026,0.00,VWS V14.00,2013-05-27 04:11:00,
2013-05-26 23:16:00,56.3,48.8,30.03,ESE,119,0.0,0.0,76,0.00,,OVC026,0.00,VWS V14.00,2013-05-27 04:16:00,
2013-05-26 23:21:00,56.2,48.8,30.03,SE,130,0.0,0.0,76,0.00,,OVC026,0.00,VWS V14.00,2013-05-27 04:21:00,
2013-05-26 23:26:00,56.2,48.4,30.02,SE,126,0.0,12.0,75,0.00,,OVC026,0.00,VWS V14.00,2013-05-27 04:26:00,
2013-05-26 23:31:00,56.2,48.4,30.02,SE,134,0.0,1.0,75,0.00,,OVC026,0.00,VWS V14.00,2013-05-27 04:31:00,
2013-05-26 23:36:00,56.1,48.3,30.01,SE,134,0.0,1.0,75,0.00,,OVC026,0.00,VWS V14.00,2013-05-27 04:36:00,
2013-05-26 23:41:00,56.0,48.2,30.01,ESE,112,0.0,0.0,75,0.00,,OVC026,0.00,VWS V14.00,2013-05-27 04:41:00,
2013-05-26 23:46:00,55.9,48.1,30.00,ESE,112,0.0,0.0,75,0.00,,OVC026,0.00,VWS V14.00,2013-05-27 04:46:00,
2013-05-26 23:51:00,55.9,48.1,30.00,ESE,112,0.0,0.0,75,0.00,,OVC026,0.00,VWS V14.00,2013-05-27 04:51:00,
2013-05-26 23:56:00,55.8,48.0,30.00,ESE,120,0.0,0.0,75,0.00,,OVC026,0.00,VWS V14.00,2013-05-27 04:56:00,